Regional Weather Roundup
Issued by NWS Memphis, TN

Home | Current Version | Previous Version | Text Only | Print | Product List | Glossary On
Versions: 1 2 3 4 5 6 7 8 9 10 11 12 13 14 15 16 17 18 19 20 21 22 23 24 25 26 27 28 29 30 31 32 33 34 35 36 37 38 39 40 41 42 43 44 45 46 47 48 49 50
000
ASUS44 KMEG 301400
RWRMEG
MEMPHIS CWA HOURLY WEATHER ROUNDUP
NATIONAL WEATHER SERVICE MEMPHIS TN
800 AM CST FRI JAN 30 2015

...WEST TENNESSEE...

CITY           SKY/WX    TMP DP  RH WIND       PRES   REMARKS
MEMPHIS INTL   MOSUNNY   38  28  67 N9        30.49R WCI  31
NWS MEMPHIS      N/A     34 N/A N/A MISG        N/A
JACKSON        CLOUDY    37  25  61 NE10      30.49R WCI  30
LEXINGTON      CLOUDY    34  23  64 NE9       30.46R WCI  26
DYERSBURG      MOSUNNY   34  18  51 N7        30.52R WCI  28
UNION CITY     MOSUNNY   30  25  80 N6        30.48R WCI  24
PARIS          CLOUDY    32  21  64 N9        30.47S WCI  24


...EASTERN ARKANSAS...

CITY           SKY/WX    TMP DP  RH WIND       PRES   REMARKS
JONESBORO      CLEAR     31  27  85 NW7       30.52R WCI  24
WEST MEMPHIS   CLEAR     34  29  82 N9        30.49R WCI  27
BATESVILLE     CLEAR     30  25  80 NW3       30.52S
WALNUT RIDGE   CLEAR     30  25  80 NW6       30.54R WCI  24
BLYTHEVILLE    CLEAR     32  29  88 N5        30.52R WCI  27
SEARCY         CLEAR     32  28  85 N6        30.54R WCI  26
STUTTGART      CLEAR     34  28  80 N5        30.52R WCI  30
PINE BLUFF     CLEAR     35  28  75 N10       30.52R WCI  27
MONTICELLO     CLEAR     37  29  72 N5        30.51R WCI  33


...NORTH MISSISSIPPI...

CITY           SKY/WX    TMP DP  RH WIND       PRES   REMARKS
TUPELO         SUNNY     38  28  67 N9        30.44S WCI  31
OLIVE BRANCH   MOSUNNY   34  30  86 N9        30.48R WCI  26
TUNICA         SUNNY     34  30  86 N10       30.50R WCI  26
GREENWOOD      SUNNY     38  31  76 N5        30.48R WCI  34
COLUMBUS       SUNNY     36  29  76 NW6       30.44R WCI  31
GOLDEN TRIANGL SUNNY     37  28  70 N9        30.42R WCI  31


...SOUTHEAST MISSOURI...

CITY           SKY/WX    TMP DP  RH WIND       PRES   REMARKS
WEST PLAINS      N/A     27  21  78 N7        30.49R WCI  19
POPLAR BLUFF   CLEAR     32  23  69 N7        30.51R WCI  26
CAPE GIRARDEAU PTCLDY    32  24  72 N12       30.51R WCI  23


...NORTHWEST ALABAMA...

CITY           SKY/WX    TMP DP  RH WIND       PRES   REMARKS
MUSCLE SHOALS  CLOUDY    39  25  57 N8        30.44R WCI  33


...MIDDLE TENNESSEE...

CITY           SKY/WX    TMP DP  RH WIND       PRES   REMARKS
NASHVILLE      CLOUDY    36  22  56 N14       30.46R WCI  27
CLARKSVILLE    CLOUDY    35  25  66 N8        30.47R WCI  29


...WESTERN KENTUCKY...

CITY           SKY/WX    TMP DP  RH WIND       PRES   REMARKS
PADUCAH        CLOUDY    34  23  64 N7        30.49S WCI  28
FORT CAMPBELL  CLOUDY    34  24  67 N6        30.47R WCI  29


...CENTRAL ARKANSAS...

CITY           SKY/WX    TMP DP  RH WIND       PRES   REMARKS
LITTLE ROCK    PTCLDY    35  27  72 N7        30.53R WCI  29


SKY/WX REPORTED AS FAIR MEANS FEW OR NO CLOUDS BELOW
12 THOUSAND FEET.



USA.gov is the U.S. government's official web portal to all federal, state and local government web resources and services.